STARLINK-36715

Last updated on Tue Mar 10 2026 00:02:05 GMT+0000 (Coordinated Universal Time)

1 67716U 26025Z 26068.25839861 .00425238 00000+0 20974-2 0 9993 2 67716 97.2855 179.9902 0002063 129.5972 230.5478 15.80992420 5888
UTC large
Height (km)
Speed (km/s)
/
Latitude / Longitude
Inclination (degrees)
Orbital Period (minutes)
Azimuth
Elevation
Range (km)
Doppler Factor

Next 0 passes for location: London (51.5072 / 0.1276)

Sorry there are no passes over London.